• In Hungary
  • List of Countries
  • For 7 days
  • Water Temperature
  • Satellite Maps
  • Weather Map
  • News
  • Weather Widgets
  • user-avatar
    Login

    Hourly Weather Yerevan

    Today, 20 August, Monday

    Time Temperature Precipitation Wind Pressure Humidity
    00:00 +24°C° 0.2 mm 2 mps 688 mmHg 64%
    01:00 +23°C° 0.2 mm 2 mps 688 mmHg 66%
    02:00 +23°C° 0.2 mm 2 mps 688 mmHg 68%
    03:00 +22°C° 0 mm 1 mps 688 mmHg 71%
    04:00 +22°C° 0.1 mm 1 mps 688 mmHg 71%
    05:00 +22°C° 0.1 mm 1 mps 689 mmHg 71%
    06:00 +21°C° 0.1 mm 2 mps 689 mmHg 71%
    07:00 +23°C° 0 mm 2 mps 689 mmHg 65%
    08:00 +25°C° 0 mm 2 mps 689 mmHg 58%
    09:00 +26°C° 0 mm 2 mps 690 mmHg 52%
    10:00 +27°C° 0.1 mm 2 mps 690 mmHg 49%
    11:00 +28°C° 0.1 mm 2 mps 690 mmHg 45%
    12:00 +29°C° 0.1 mm 3 mps 690 mmHg 42%
    13:00 +30°C° 0.3 mm 3 mps 690 mmHg 41%
    14:00 +31°C° 0.3 mm 3 mps 690 mmHg 39%
    15:00 +31°C° 0.3 mm 3 mps 690 mmHg 38%
    16:00 +30°C° 0.1 mm 4 mps 689 mmHg 41%
    17:00 +30°C° 0.1 mm 4 mps 689 mmHg 43%
    18:00 +29°C° 0.1 mm 4 mps 689 mmHg 46%
    19:00 +27°C° 0.2 mm 4 mps 689 mmHg 51%
    20:00 +26°C° 0.2 mm 3 mps 690 mmHg 57%
    21:00 +24°C° 0.2 mm 3 mps 690 mmHg 62%
    22:00 +24°C° 0.2 mm 3 mps 690 mmHg 64%
    23:00 +22°C° 0.2 mm 3 mps 690 mmHg 65%

    Tomorrow, 21 August, Tuesday

    Time Temperature Precipitation Wind Pressure Humidity
    00:00 +23°C° 0.2 mm 2 mps 690 mmHg 67%
    01:00 +21°C° 0.2 mm 2 mps 690 mmHg 68%
    02:00 +21°C° 0.2 mm 2 mps 690 mmHg 69%
    03:00 +20°C° 0.2 mm 2 mps 690 mmHg 71%
    04:00 +20°C° 0 mm 2 mps 690 mmHg 70%
    05:00 +20°C° 0 mm 2 mps 690 mmHg 70%
    06:00 +20°C° 0 mm 2 mps 690 mmHg 70%
    07:00 +24°C° 0 mm 2 mps 690 mmHg 62%
    08:00 +26°C° 0 mm 2 mps 690 mmHg 53%
    09:00 +28°C° 0 mm 2 mps 690 mmHg 45%
    10:00 +29°C° 0 mm 2 mps 690 mmHg 41%
    11:00 +31°C° 0 mm 2 mps 690 mmHg 37%
    12:00 +32°C° 0 mm 2 mps 689 mmHg 33%
    13:00 +34°C° 0 mm 3 mps 689 mmHg 31%
    14:00 +34°C° 0 mm 3 mps 689 mmHg 30%
    15:00 +35°C° 0 mm 3 mps 688 mmHg 28%
    16:00 +34°C° 0.1 mm 2 mps 688 mmHg 31%
    17:00 +32°C° 0.1 mm 2 mps 688 mmHg 33%
    18:00 +32°C° 0.1 mm 2 mps 688 mmHg 36%
    19:00 +30°C° 0.1 mm 2 mps 688 mmHg 42%
    20:00 +28°C° 0.1 mm 2 mps 688 mmHg 48%
    21:00 +26°C° 0.1 mm 3 mps 689 mmHg 54%
    22:00 +26°C° 0.1 mm 3 mps 689 mmHg 57%
    23:00 +25°C° 0.1 mm 2 mps 689 mmHg 59%

    Day after tomorrow, 22 August, Wednesday

    Time Temperature Precipitation Wind Pressure Humidity
    00:00 +24°C° 0.1 mm 2 mps 689 mmHg 61%
    01:00 +24°C° 0 mm 2 mps 689 mmHg 62%
    02:00 +23°C° 0 mm 2 mps 689 mmHg 63%
    03:00 +23°C° 0 mm 2 mps 689 mmHg 64%
    04:00 +23°C° 0 mm 2 mps 689 mmHg 65%
    05:00 +23°C° 0 mm 2 mps 689 mmHg 65%
    06:00 +23°C° 0 mm 2 mps 689 mmHg 65%
    07:00 +25°C° 0 mm 2 mps 689 mmHg 57%
    08:00 +27°C° 0 mm 1 mps 689 mmHg 49%
    09:00 +29°C° 0 mm 1 mps 689 mmHg 41%
    10:00 +30°C° 0 mm 1 mps 689 mmHg 37%
    11:00 +32°C° 0 mm 1 mps 689 mmHg 33%
    12:00 +34°C° 0 mm 2 mps 689 mmHg 30%
    13:00 +35°C° 0.1 mm 2 mps 688 mmHg 28%
    14:00 +35°C° 0.1 mm 2 mps 688 mmHg 27%
    15:00 +36°C° 0.1 mm 2 mps 688 mmHg 25%
    16:00 +35°C° 0.1 mm 2 mps 688 mmHg 28%
    17:00 +34°C° 0.1 mm 2 mps 688 mmHg 31%
    18:00 +33°C° 0.1 mm 3 mps 688 mmHg 34%
    19:00 +31°C° 0.1 mm 3 mps 688 mmHg 40%
    20:00 +29°C° 0.1 mm 3 mps 688 mmHg 46%
    21:00 +27°C° 0.1 mm 3 mps 689 mmHg 52%
    22:00 +26°C° 0 mm 3 mps 689 mmHg 55%
    23:00 +25°C° 0 mm 3 mps 689 mmHg 57%

    23 August, Thursday

    Time Temperature Precipitation Wind Pressure Humidity
    00:00 +25°C° 0 mm 2 mps 689 mmHg 59%
    01:00 +24°C° 0 mm 2 mps 689 mmHg 60%
    02:00 +24°C° 0 mm 2 mps 689 mmHg 62%
    03:00 +23°C° 0 mm 2 mps 689 mmHg 63%
    04:00 +23°C° 0 mm 2 mps 689 mmHg 64%
    05:00 +23°C° 0 mm 2 mps 689 mmHg 64%
    06:00 +23°C° 0 mm 2 mps 689 mmHg 65%
    07:00 +25°C° 0 mm 2 mps 689 mmHg 57%
    08:00 +27°C° 0 mm 2 mps 689 mmHg 50%
    09:00 +29°C° 0 mm 1 mps 689 mmHg 42%
    10:00 +30°C° 0 mm 2 mps 689 mmHg 38%
    11:00 +32°C° 0 mm 2 mps 689 mmHg 34%
    12:00 +34°C° 0 mm 2 mps 689 mmHg 30%
    13:00 +35°C° 0 mm 2 mps 688 mmHg 28%
    14:00 +35°C° 0 mm 2 mps 688 mmHg 27%
    15:00 +36°C° 0 mm 3 mps 688 mmHg 26%
    16:00 +35°C° 0 mm 3 mps 688 mmHg 29%
    17:00 +34°C° 0 mm 3 mps 688 mmHg 32%
    18:00 +33°C° 0 mm 3 mps 688 mmHg 35%
    19:00 +30°C° 0.1 mm 3 mps 688 mmHg 40%
    20:00 +29°C° 0.1 mm 3 mps 689 mmHg 46%
    21:00 +27°C° 0.1 mm 3 mps 689 mmHg 52%
    22:00 +26°C° 0 mm 3 mps 689 mmHg 53%
    23:00 +25°C° 0 mm 3 mps 689 mmHg 54%

    24 August, Friday

    Time Temperature Precipitation Wind Pressure Humidity
    00:00 +25°C° 0 mm 2 mps 690 mmHg 54%
    01:00 +24°C° 0 mm 2 mps 689 mmHg 56%
    02:00 +24°C° 0 mm 2 mps 689 mmHg 57%
    03:00 +23°C° 0 mm 2 mps 689 mmHg 58%
    04:00 +23°C° 0 mm 2 mps 689 mmHg 58%
    05:00 +23°C° 0 mm 2 mps 689 mmHg 58%
    06:00 +23°C° 0 mm 2 mps 690 mmHg 59%
    07:00 +25°C° 0 mm 2 mps 690 mmHg 51%
    08:00 +28°C° 0 mm 2 mps 690 mmHg 44%
    09:00 +30°C° 0 mm 2 mps 690 mmHg 37%
    10:00 +31°C° 0 mm 2 mps 690 mmHg 33%
    11:00 +34°C° 0 mm 2 mps 689 mmHg 30%
    12:00 +35°C° 0 mm 3 mps 689 mmHg 27%
    13:00 +36°C° 0 mm 3 mps 689 mmHg 25%
    14:00 +36°C° 0 mm 3 mps 688 mmHg 24%
    15:00 +37°C° 0 mm 3 mps 688 mmHg 23%
    16:00 +36°C° 0 mm 3 mps 688 mmHg 25%
    17:00 +35°C° 0 mm 3 mps 688 mmHg 28%
    18:00 +34°C° 0 mm 3 mps 688 mmHg 31%
    19:00 +31°C° 0 mm 3 mps 688 mmHg 36%
    20:00 +29°C° 0 mm 3 mps 688 mmHg 42%
    21:00 +27°C° 0 mm 3 mps 688 mmHg 48%
    22:00 +27°C° 0 mm 3 mps 688 mmHg 48%
    23:00 +26°C° 0 mm 3 mps 688 mmHg 49%

    25 August, Saturday

    Time Temperature Precipitation Wind Pressure Humidity
    00:00 +25°C° 0 mm 2 mps 688 mmHg 49%
    01:00 +25°C° 0 mm 2 mps 688 mmHg 50%
    02:00 +24°C° 0 mm 2 mps 688 mmHg 50%
    03:00 +24°C° 0 mm 2 mps 688 mmHg 50%
    04:00 +24°C° 0 mm 2 mps 688 mmHg 50%
    05:00 +24°C° 0 mm 2 mps 688 mmHg 50%
    06:00 +24°C° 0 mm 1 mps 688 mmHg 50%
    07:00 +26°C° 0 mm 1 mps 688 mmHg 44%
    08:00 +29°C° 0 mm 1 mps 688 mmHg 37%
    09:00 +31°C° 0 mm 1 mps 688 mmHg 31%
    10:00 +32°C° 0 mm 1 mps 688 mmHg 28%
    11:00 +35°C° 0 mm 2 mps 688 mmHg 25%
    12:00 +36°C° 0 mm 2 mps 688 mmHg 21%
    13:00 +37°C° 0 mm 2 mps 687 mmHg 20%
    14:00 +38°C° 0 mm 2 mps 687 mmHg 19%
    15:00 +38°C° 0 mm 2 mps 687 mmHg 18%
    16:00 +37°C° 0 mm 2 mps 687 mmHg 21%
    17:00 +36°C° 0 mm 2 mps 687 mmHg 24%
    18:00 +35°C° 0 mm 2 mps 686 mmHg 27%
    19:00 +32°C° 0 mm 2 mps 687 mmHg 33%
    20:00 +30°C° 0 mm 3 mps 687 mmHg 39%
    21:00 +28°C° 0 mm 3 mps 687 mmHg 45%
    22:00 +27°C° 0 mm 3 mps 687 mmHg 46%
    23:00 +26°C° 0 mm 3 mps 687 mmHg 47%
    Show more